Theta_e
358 359 362 361 351 343 341 341 341 341 342 344 345 345 346 347 348 349 350 350 351 350 350 350 350 351 351 350 350 350 350 350 350 350 349 349 349 349 349 350 351 351 351 351 351 351 350 351 352 353 354 354 355 354 351 350 352 353 352 352 352 353 354
358 358 362 363 359 350 342 340 341 341 341 343 344 345 346 347 348 349 349 350 350 350 349 349 350 350 349 349 350 349 349 350 350 350 349 348 349 349 348 350 350 350 351 350 350 350 350 351 352 353 354 354 354 355 353 351 351 351 352 352 352 353 353
357 357 358 361 363 357 345 340 341 341 341 342 343 344 345 346 348 348 349 349 349 349 349 349 349 349 349 349 348 348 349 350 351 350 349 348 348 349 348 349 350 350 350 349 349 350 350 351 352 353 353 353 354 355 354 353 352 353 353 352 352 352 353
357 358 358 359 362 358 349 342 341 341 341 342 342 344 344 345 347 348 348 348 349 349 349 349 348 349 348 348 347 347 348 350 350 350 350 349 349 349 349 349 350 350 350 349 350 350 351 352 353 354 354 354 354 354 354 354 354 354 355 353 352 352 353
356 357 358 359 360 359 353 347 343 342 341 341 342 343 343 344 346 347 347 348 349 349 349 349 349 348 348 347 346 346 348 350 350 349 350 349 349 350 350 350 350 350 351 350 349 350 351 352 353 354 354 354 355 355 355 354 354 354 355 355 353 352 353
356 356 358 360 358 357 355 351 348 346 344 342 342 342 343 343 345 346 346 347 348 348 348 349 349 348 348 347 347 347 348 349 349 349 350 349 350 350 350 350 350 351 351 350 350 350 351 352 353 354 354 354 355 355 355 355 355 355 355 355 356 355 354
355 356 357 358 358 357 355 353 351 350 347 344 343 343 343 342 344 346 346 347 347 348 348 348 348 349 348 348 348 348 348 348 347 348 349 349 349 349 349 350 350 351 351 350 350 350 350 351 352 353 354 354 354 355 355 355 355 355 355 355 355 356 355
354 355 355 356 357 357 355 354 353 352 350 347 346 346 345 344 344 345 346 347 347 347 347 348 348 348 348 348 349 349 348 348 348 347 348 349 349 349 349 350 351 352 352 353 353 352 352 352 352 353 354 354 354 354 354 355 355 355 355 355 355 355 356
350 353 354 353 355 355 354 354 353 352 351 350 349 347 347 347 346 347 347 347 347 347 346 347 347 347 349 349 349 349 349 349 349 348 347 347 347 347 348 349 352 353 353 354 354 354 354 354 354 354 353 353 353 353 353 354 354 355 355 355 355 355 355
346 349 351 351 352 352 351 351 351 351 351 350 350 348 348 350 349 349 349 347 348 348 347 347 346 347 350 350 350 350 350 350 350 349 348 348 348 348 348 349 351 352 352 353 353 354 354 355 355 355 354 353 353 353 352 353 353 354 354 354 355 355 355
343 345 347 347 348 347 346 347 347 349 350 351 350 349 349 351 351 350 349 348 348 348 348 348 347 347 350 351 351 351 351 351 351 350 350 350 351 350 349 349 349 350 351 352 353 353 353 354 355 354 355 354 353 353 352 352 352 352 353 354 354 354 354
341 342 343 342 341 340 340 341 344 346 349 351 351 351 350 350 350 350 350 350 350 350 349 349 348 349 350 350 352 353 353 353 353 353 353 353 353 352 352 351 351 351 352 352 353 353 353 353 353 354 354 355 354 353 352 352 352 351 352 353 354 354 354
337 338 338 338 337 336 337 339 341 343 346 349 350 351 349 349 349 349 349 350 352 351 350 350 350 350 350 350 351 353 353 353 354 354 354 353 353 353 354 354 354 354 353 353 354 354 354 353 353 353 354 354 354 353 353 353 352 352 351 352 353 353 353
335 334 335 335 335 335 336 337 338 338 340 344 347 348 350 349 349 349 350 351 352 352 352 351 351 351 351 351 351 352 353 353 354 354 354 354 353 352 353 353 354 354 354 354 353 353 353 353 353 353 353 353 353 353 353 352 352 352 352 352 352 353 353
334 333 333 333 333 335 336 336 336 336 337 340 343 345 347 348 348 349 350 350 350 350 351 351 351 351 350 350 350 351 351 351 352 353 353 353 353 352 352 352 352 353 353 353 353 352 352 351 350 350 350 351 351 351 351 351 351 352 352 352 351 352 352
333 331 331 331 332 333 334 334 334 335 337 339 340 342 344 346 347 347 348 349 349 349 349 350 350 349 349 349 349 349 348 347 349 350 349 350 350 350 351 351 352 352 352 353 353 353 352 351 351 350 349 349 349 349 350 350 350 351 351 351 352 351 352
330 329 329 328 329 330 330 332 334 335 336 338 339 341 342 344 346 346 347 348 347 348 348 347 348 348 347 348 348 347 347 346 347 348 347 347 348 348 349 350 350 350 350 352 352 352 353 352 352 351 350 349 348 348 349 349 349 350 350 350 351 351 351
328 327 327 327 327 328 329 331 333 333 334 335 337 339 340 341 343 344 345 345 345 346 346 345 346 346 346 348 347 346 347 347 347 347 347 348 348 349 349 350 350 350 350 351 352 352 352 352 352 351 351 350 350 350 350 350 349 349 350 350 350 350 350
326 325 325 325 326 327 328 329 329 328 330 333 335 336 337 339 340 340 341 342 343 343 342 342 344 345 345 346 346 346 346 347 347 346 347 348 349 350 351 351 351 351 351 353 353 352 352 352 352 352 352 352 352 351 351 351 350 349 349 349 349 350 350
325 324 324 323 324 325 325 325 326 327 329 332 333 333 333 336 336 336 337 338 338 338 337 336 337 338 340 342 342 342 342 342 341 341 342 344 346 347 349 349 349 349 350 352 353 353 353 353 353 353 353 353 353 352 352 352 351 350 350 350 350 350 351
325 323 322 323 324 324 324 324 326 328 328 329 330 330 331 331 330 329 329 329 329 330 330 329 329 330 331 334 335 336 337 336 335 335 336 338 341 342 342 343 343 344 346 348 350 351 351 351 351 351 352 353 353 353 353 352 352 351 351 351 350 350 351
326 324 323 323 323 323 323 324 326 327 327 328 330 331 329 327 325 324 324 324 324 324 324 324 324 325 326 327 328 329 329 328 328 328 330 331 334 335 336 337 338 339 341 343 344 346 347 347 347 348 349 350 352 352 353 353 352 352 352 352 352 352 352
323 323 322 321 322 322 323 324 326 327 328 329 329 328 326 324 323 324 324 323 323 323 322 322 323 324 324 324 324 324 324 323 323 323 323 324 325 328 329 331 333 334 336 338 339 339 340 341 341 343 345 347 348 350 351 350 349 349 351 352 352 352 353
319 319 319 320 321 322 322 323 325 327 329 328 325 325 324 323 323 323 322 322 322 322 322 322 322 323 322 322 322 322 322 322 321 321 321 322 323 323 324 326 327 328 331 334 336 336 337 338 338 338 339 340 341 343 346 346 345 345 347 350 350 350 351
317 318 319 321 321 321 322 323 324 326 327 325 324 323 323 323 323 322 321 321 321 321 321 321 321 322 322 321 321 321 321 321 321 321 322 323 323 323 324 324 325 325 327 329 331 333 334 336 337 338 337 337 338 340 339 338 340 341 344 346 347 346 346
316 317 319 320 320 321 321 322 323 324 324 324 323 323 323 323 322 321 320 320 320 320 320 321 321 321 321 321 321 321 321 321 322 322 323 323 323 323 323 324 324 325 326 327 328 329 331 333 335 336 335 335 338 341 340 339 342 343 343 343 344 345 346
317 318 319 319 320 320 321 321 322 322 322 322 323 322 322 322 321 320 319 319 319 319 320 320 320 320 320 320 321 321 321 321 321 322 322 322 322 322 323 323 323 324 325 326 327 328 330 331 332 334 336 337 338 340 340 338 338 337 333 333 336 339 341
317 318 318 319 319 320 320 320 320 321 320 321 321 321 321 321 320 319 318 318 318 319 319 319 319 319 319 319 320 320 320 319 320 320 320 320 321 321 321 321 322 322 323 324 324 325 326 326 326 328 332 334 333 332 331 329 327 327 326 325 326 327 329
317 318 318 318 319 319 319 320 319 319 319 319 319 319 319 319 318 318 318 318 317 318 318 317 318 317 317 318 318 318 318 317 317 318 318 318 319 319 319 319 319 320 321 321 322 322 322 322 323 323 325 326 326 325 325 323 323 324 325 325 325 325 325
317 317 317 317 318 318 318 319 318 318 318 318 318 318 317 317 317 317 317 317 317 316 316 316 316 316 316 316 316 316 316 316 316 316 316 316 317 317 317 317 317 317 318 318 319 319 319 319 320 321 321 322 322 323 323 322 321 322 323 324 325 325 324
316 317 317 316 317 317 317 318 317 317 317 317 317 316 316 316 315 315 315 315 315 315 315 315 314 314 314 314 314 314 315 314 314 314 314 314 315 315 315 315 315 316 316 317 317 317 318 318 318 318 319 319 319 320 320 320 321 321 322 323 323 324 324
316 316 316 316 316 316 317 316 316 316 315 315 315 315 315 315 314 314 314 313 314 314 314 314 314 314 313 313 313 313 313 313 314 313 313 314 314 314 314 314 314 315 315 316 316 316 317 317 317 317 317 317 318 318 318 319 320 321 321 322 322 323 323
316 315 315 315 315 315 316 315 315 315 314 314 314 314 314 314 313 313 313 313 313 313 313 313 313 313 313 313 312 312 312 313 314 313 313 313 313 313 313 313 313 313 313 314 315 315 315 315 314 314 315 316 317 318 318 319 320 320 320 321 321 321 322
314 315 315 315 315 315 315 314 314 314 314 313 313 313 313 313 313 313 313 313 312 312 312 313 312 312 312 311 311 311 312 312 313 312 312 312 312 312 312 312 311 311 312 312 313 313 313 312 312 313 314 315 316 317 318 319 319 319 319 319 319 320 320
315 315 314 314 314 314 313 313 314 314 313 313 313 313 313 312 312 311 311 311 311 311 312 312 311 311 311 310 310 311 311 311 311 311 311 311 311 310 310 310 310 310 310 310 311 311 311 311 312 313 314 314 315 316 317 317 317 317 317 317 317 318 318
314 315 314 314 313 312 312 313 313 313 313 313 312 312 312 311 310 310 309 310 311 311 311 311 311 310 310 310 310 311 311 311 310 310 309 309 309 309 308 309 309 310 310 310 310 309 310 310 312 313 314 315 315 315 316 316 316 315 315 315 315 316 317
314 314 314 313 311 312 312 313 313 312 312 312 312 311 311 310 309 309 310 310 311 310 310 310 310 310 310 309 310 311 311 310 309 308 308 308 308 309 309 309 310 310 310 310 310 309 309 310 311 313 314 315 315 315 315 315 315 315 314 314 314 315 316
314 314 313 312 311 311 312 312 312 312 311 311 311 310 309 309 310 310 311 311 311 310 310 310 309 310 309 309 310 311 311 309 308 308 308 307 308 308 309 310 311 311 311 310 310 309 309 310 312 313 314 314 315 315 315 315 315 315 315 315 315 315 315
Wind_Speed
6 5 4 4 7 9 12 17 21 22 23 26 27 28 29 29 29 29 30 31 32 32 32 31 30 30 28 27 26 24 24 22 19 16 16 16 17 17 16 14 13 12 12 12 13 13 12 10 9 9 9 9 8 7 7 8 8 8 7 7 7 7 6
6 6 5 4 5 6 11 17 20 22 24 25 26 27 28 29 30 31 31 32 33 33 33 32 31 29 27 25 25 25 25 23 20 17 16 17 17 17 17 16 15 13 12 11 11 12 13 12 10 10 9 9 9 8 8 8 8 8 8 8 8 8 8
6 5 5 5 4 4 8 14 18 20 23 24 25 26 28 31 32 34 34 33 34 33 32 31 30 29 27 25 25 26 26 24 20 18 17 18 18 17 16 16 16 15 13 12 11 11 12 12 11 10 9 9 9 9 8 8 8 8 8 9 9 9 9
9 7 6 5 5 5 8 13 17 19 21 23 25 27 30 33 34 35 34 33 33 32 31 31 30 29 27 25 26 27 27 25 21 19 18 18 18 17 16 16 16 15 14 13 11 11 11 11 11 11 10 10 9 9 9 8 9 9 8 9 10 10 10
12 9 7 6 5 4 5 10 15 18 19 20 23 25 26 28 28 26 25 25 25 26 27 28 28 28 28 27 26 27 28 27 23 21 20 19 18 17 17 16 16 16 15 14 13 12 11 11 11 10 10 10 10 10 10 10 10 9 9 10 10 10 11
11 10 8 6 6 5 5 7 10 12 15 18 20 20 20 21 21 20 20 21 22 23 24 24 25 27 28 28 27 28 28 27 25 23 22 20 19 19 18 17 17 16 15 14 14 13 13 12 12 12 11 11 11 11 11 11 11 11 10 10 10 11 11
9 10 10 7 6 6 6 7 8 8 11 17 18 18 18 20 21 21 21 22 24 24 23 24 25 27 27 28 28 27 28 28 27 25 23 22 21 21 20 19 17 16 15 14 15 14 14 14 13 13 12 12 12 12 12 12 12 11 11 11 11 11 11
5 5 6 6 6 6 7 9 11 11 11 14 16 18 19 21 22 23 23 24 26 26 24 24 25 27 27 27 28 28 28 28 27 26 24 23 23 22 22 20 18 15 14 14 14 14 15 15 14 14 14 13 12 12 13 13 13 12 12 12 12 12 11
4 4 5 5 6 6 9 12 13 15 15 15 16 19 20 21 21 22 21 22 24 26 26 26 26 26 26 27 27 28 28 27 26 26 25 24 24 23 23 22 19 16 15 15 14 14 15 15 15 14 14 14 13 13 13 14 14 14 14 13 13 13 12
5 6 6 6 6 7 10 13 14 15 16 17 17 18 18 17 17 18 18 19 21 24 26 27 27 27 25 25 26 26 26 26 25 25 25 24 24 23 23 23 21 19 17 17 16 16 16 16 16 15 15 15 15 15 14 14 14 14 15 15 14 14 14
6 7 7 7 7 7 9 10 9 10 13 16 17 17 16 15 16 17 18 22 25 25 26 27 30 29 26 24 23 23 24 24 24 24 24 24 23 22 22 22 22 21 19 18 18 17 17 17 17 17 17 17 16 16 15 15 14 15 15 16 15 15 14
6 6 7 7 7 7 8 8 8 7 8 10 13 15 17 18 19 21 23 25 26 26 26 28 30 28 24 21 19 21 22 22 22 22 21 21 21 22 21 20 20 20 20 20 19 18 18 18 19 19 19 18 18 17 16 16 16 16 16 16 16 16 16
6 6 6 7 7 7 7 8 8 7 7 8 10 14 19 22 25 27 27 26 24 24 26 26 27 25 24 24 22 21 22 22 21 20 18 16 15 16 18 18 19 19 19 19 18 18 18 18 18 18 18 19 19 19 18 18 18 17 17 17 18 18 18
8 8 7 7 7 7 7 6 6 7 8 9 10 12 17 23 25 25 24 22 22 22 22 22 23 21 22 24 23 22 23 24 23 22 21 19 16 14 14 15 17 18 18 18 17 16 16 16 17 17 17 18 19 19 19 19 19 20 19 19 19 20 20
9 8 8 8 7 7 7 5 4 5 8 9 10 10 12 14 17 17 18 18 18 19 17 16 16 16 16 17 17 18 20 20 19 18 18 20 20 18 16 15 16 18 19 19 17 16 16 15 16 15 15 16 17 18 18 19 20 20 21 21 22 22 22
9 8 8 8 7 6 6 4 3 6 9 10 10 9 7 7 9 12 14 14 13 12 11 11 13 13 13 13 14 15 13 12 13 12 11 14 16 17 16 14 14 16 18 19 19 18 17 16 16 17 17 17 17 18 19 19 20 21 21 22 23 24 24
8 7 7 7 6 5 4 4 5 6 9 11 12 11 11 11 11 11 12 10 7 5 4 7 9 9 9 9 11 13 10 8 9 9 9 10 11 10 10 10 10 13 15 16 17 17 16 16 16 16 16 16 17 18 19 20 21 21 22 22 23 24 24
7 7 7 6 6 5 3 4 5 7 9 11 12 13 13 14 15 12 8 5 6 8 8 8 10 11 10 8 7 8 9 8 7 8 9 9 8 6 5 5 6 9 11 11 11 12 13 13 13 12 12 13 13 14 16 17 19 20 22 22 22 22 24
8 7 7 6 6 5 4 5 7 9 11 12 13 14 14 14 16 14 11 9 11 14 16 16 18 18 15 14 15 14 14 14 13 13 12 10 9 8 6 5 5 4 4 4 5 8 9 10 10 9 8 9 9 9 9 10 12 15 18 21 21 22 22
7 7 6 6 6 6 6 7 9 12 15 15 15 16 17 17 18 18 17 17 18 19 22 23 22 21 19 18 18 16 16 15 14 13 11 9 8 8 7 7 6 4 3 3 3 4 5 5 5 4 4 5 5 5 4 4 6 9 11 13 17 19 20
7 8 7 6 5 6 8 10 11 14 16 17 16 17 19 19 20 22 23 24 24 24 25 25 24 23 22 20 18 17 17 15 15 14 13 11 10 8 8 8 6 3 1 1 2 2 2 2 2 1 1 2 3 5 5 5 6 7 6 6 8 11 14
7 8 7 7 7 8 11 12 14 15 16 17 17 18 19 20 22 24 26 27 26 26 25 25 24 23 22 20 18 17 17 16 16 16 14 13 12 11 11 10 7 5 2 1 0 1 2 1 1 1 1 0 2 5 7 7 6 5 5 5 5 6 9
8 9 9 11 12 13 15 16 16 16 17 18 18 19 20 21 22 23 25 26 26 25 25 24 23 21 21 20 18 16 16 16 15 14 14 13 13 14 13 11 8 6 3 1 1 2 1 0 2 2 2 2 3 5 6 6 6 5 4 3 3 4 6
13 14 14 14 16 16 16 18 18 18 18 19 20 19 20 20 20 21 23 24 24 24 24 23 22 20 19 18 16 15 14 13 13 13 13 13 14 14 13 11 9 7 4 3 2 3 3 3 4 5 5 5 5 5 6 6 8 9 8 6 4 4 5
14 17 16 17 18 17 16 17 20 21 20 20 20 19 19 18 18 20 22 22 22 23 23 21 20 18 17 15 14 13 12 11 11 12 13 13 14 13 12 11 9 7 6 5 5 5 6 6 6 6 6 7 8 8 6 6 7 9 10 10 9 8 8
16 18 19 19 19 18 17 18 21 22 21 21 20 18 17 16 17 19 19 19 20 21 21 19 17 16 15 14 13 12 12 13 13 13 15 15 15 15 14 12 10 9 7 7 7 9 10 9 9 8 7 6 8 10 8 6 5 5 6 7 8 8 6
18 20 21 22 21 20 20 19 20 20 19 18 18 16 15 15 16 18 17 16 18 19 17 16 15 14 14 15 14 14 14 15 15 15 16 16 16 16 16 15 14 12 11 10 10 11 13 14 14 13 11 8 9 11 11 8 5 6 10 9 5 4 4
18 18 20 22 22 23 23 21 20 19 18 16 15 14 13 13 16 17 16 16 17 16 14 13 13 13 14 15 15 16 15 15 15 15 15 15 14 15 16 16 15 14 13 13 12 12 14 15 16 15 13 11 10 12 13 12 8 6 9 11 9 7 7
17 17 19 21 22 23 24 22 20 19 17 15 14 13 11 12 15 15 15 16 16 13 12 12 12 12 14 14 15 15 15 15 15 14 14 14 13 14 15 14 14 14 13 13 13 13 14 15 14 14 13 11 11 11 12 14 13 10 7 8 8 8 8
17 17 18 20 21 22 23 23 20 18 15 13 12 11 10 11 13 14 15 15 13 11 11 11 11 11 13 13 13 14 14 14 14 13 13 13 13 13 14 14 13 14 13 13 13 14 14 15 14 13 13 12 11 11 10 12 13 12 10 8 7 7 7
16 17 18 20 20 21 22 22 20 18 15 11 9 9 9 10 12 15 15 13 11 10 10 10 10 11 12 12 12 12 12 12 12 12 13 13 13 13 14 14 13 14 13 13 14 14 14 14 14 13 13 13 12 11 11 11 11 11 10 10 9 8 8
13 15 17 19 20 20 21 21 20 18 16 13 11 10 10 9 11 14 15 12 10 10 9 9 10 11 11 11 11 11 10 11 11 12 11 12 12 13 13 14 13 14 13 13 13 14 14 14 13 13 13 13 13 12 12 12 11 11 11 11 11 11 12
11 13 15 18 19 19 19 19 18 17 17 15 13 12 11 11 10 11 10 9 9 8 8 8 9 10 10 10 10 10 10 11 11 11 11 11 11 11 11 12 12 13 13 13 13 13 13 13 13 13 13 13 13 13 12 12 12 13 14 14 15 15 16
11 13 14 16 18 18 17 17 16 15 16 15 13 12 11 10 9 7 5 5 5 6 6 7 8 8 9 9 9 9 10 10 10 10 10 11 11 11 12 12 12 12 12 12 12 12 12 12 12 12 12 12 13 13 13 13 13 14 16 17 18 18 19
15 15 15 16 16 16 16 17 17 16 16 14 12 10 8 7 6 4 3 3 3 4 4 5 6 7 8 8 8 9 9 9 9 10 10 10 10 11 11 11 11 11 10 9 9 9 9 10 10 10 10 10 11 12 14 15 15 15 15 16 17 18 19
19 19 19 17 16 16 17 19 19 18 17 14 11 9 7 5 3 1 1 1 1 2 3 4 5 6 7 8 8 8 7 8 9 9 9 10 11 11 11 10 10 9 9 9 9 9 8 8 8 8 8 9 9 10 11 13 14 14 14 14 14 15 17
21 22 22 20 19 19 20 21 20 19 17 15 12 10 8 6 5 4 3 3 2 0 1 2 3 5 6 7 7 7 7 8 9 9 10 11 11 11 11 11 11 10 10 10 10 10 10 8 7 7 7 8 9 9 9 9 11 12 13 14 14 15 16
26 26 25 23 22 22 23 22 21 19 18 16 13 11 10 9 8 7 6 6 4 3 2 1 2 3 4 5 6 6 6 8 9 9 11 12 12 12 12 12 11 10 10 11 11 11 10 10 9 9 8 9 9 10 10 10 11 12 13 14 14 15 16
Wind_Direction
129 130 136 157 177 180 182 182 182 184 186 189 192 192 192 194 197 199 201 203 204 206 207 208 210 213 217 220 221 221 221 223 229 235 238 244 244 235 228 229 233 239 245 249 250 247 244 241 239 244 247 248 251 246 240 238 237 239 240 243 248 247 247
136 151 149 146 166 179 181 182 182 184 187 191 193 192 192 193 196 199 202 204 206 208 209 209 211 214 217 220 221 220 219 222 229 233 236 240 238 231 228 230 232 237 245 253 258 253 245 242 243 248 251 253 255 251 243 238 235 237 239 243 247 245 245
142 165 161 144 144 153 171 180 186 188 189 191 192 193 194 196 199 202 203 205 207 208 209 210 212 214 217 219 221 220 219 222 228 231 233 234 231 229 229 230 232 238 246 253 257 251 243 241 245 249 251 256 260 256 248 239 234 236 242 247 250 248 249
160 168 171 166 151 141 161 176 186 192 193 193 195 197 198 199 202 204 205 206 206 207 209 211 213 214 216 219 221 220 218 221 226 229 230 231 229 229 230 232 236 242 249 251 250 246 241 240 244 249 252 256 260 258 252 244 241 243 249 253 253 252 252
171 168 175 179 161 142 154 172 185 192 193 195 199 203 203 202 203 203 205 207 206 207 210 212 213 214 216 220 222 222 220 221 225 227 228 230 231 231 233 236 241 247 252 251 247 246 244 242 244 249 253 255 258 258 253 251 252 253 254 257 258 255 253
173 174 183 186 165 152 151 161 174 184 190 195 199 204 206 203 201 201 204 207 206 208 211 212 213 214 216 219 222 223 223 223 226 227 228 229 232 235 237 239 242 247 253 252 249 248 248 248 248 250 254 257 259 259 256 255 257 257 256 258 261 261 258
170 177 180 177 161 154 149 139 129 140 174 189 193 198 200 197 196 198 203 208 209 210 210 211 214 216 217 219 221 223 224 225 227 228 229 231 234 237 239 241 242 245 249 252 253 252 252 253 254 254 257 261 264 264 262 261 261 259 257 258 260 264 264
149 159 158 149 144 144 136 125 118 120 140 165 177 182 186 188 192 197 202 209 212 211 209 212 216 217 219 219 220 223 225 227 229 230 231 233 236 239 239 238 239 241 244 249 253 254 254 257 259 258 257 260 265 267 267 268 267 261 256 256 258 262 265
103 104 114 116 120 124 116 112 117 121 129 145 162 173 178 180 186 194 200 207 214 214 211 214 218 220 221 221 222 224 226 228 230 231 234 235 238 240 238 235 235 237 240 244 248 252 254 259 262 260 258 258 262 266 268 270 270 264 257 254 256 260 265
97 98 105 110 111 108 104 107 114 126 138 147 159 174 177 174 179 189 196 208 220 221 216 216 221 223 221 219 222 225 226 228 229 231 234 236 239 240 238 235 235 238 240 243 246 249 253 258 262 262 260 260 263 265 265 266 267 265 260 257 257 260 263
98 100 103 107 105 98 96 100 112 134 152 157 165 171 161 156 173 188 200 216 223 220 215 217 223 223 218 216 219 222 224 226 229 231 233 236 239 240 238 237 238 240 243 245 247 251 254 256 260 262 263 264 266 266 264 263 263 264 263 262 261 261 262
95 96 95 95 92 88 86 89 100 122 143 155 164 160 146 156 183 199 208 216 217 212 210 216 223 223 220 220 222 223 224 224 226 228 231 235 239 241 240 239 240 242 244 246 249 252 254 255 259 264 266 266 267 267 266 266 265 263 261 261 261 262 262
90 87 87 89 87 84 88 94 108 123 131 139 151 153 155 172 194 206 210 211 208 207 206 209 215 218 221 224 226 225 223 221 220 220 221 227 235 240 243 242 242 243 245 246 248 252 255 257 260 265 269 269 269 268 268 269 268 266 263 259 259 260 262
95 91 89 90 88 90 98 109 121 128 131 136 144 152 164 180 195 204 208 208 204 202 202 202 204 206 211 216 218 220 220 219 218 218 219 222 226 233 241 245 245 244 243 243 244 247 254 258 262 266 269 270 271 271 271 271 270 269 267 263 260 260 261
104 102 97 95 98 103 112 120 118 109 112 120 130 143 164 182 190 198 208 212 208 203 200 198 197 196 196 199 206 215 221 221 221 223 225 226 227 229 232 240 248 248 243 240 240 241 246 253 258 262 264 267 270 272 273 273 272 272 271 269 266 264 264
111 109 103 102 107 111 114 111 97 100 101 100 105 118 131 144 160 186 208 214 211 210 204 199 201 202 197 199 213 222 222 218 218 220 225 228 229 229 228 232 246 252 247 241 239 240 241 246 252 257 261 265 268 271 273 273 273 273 273 273 273 270 268
112 111 106 106 109 108 109 105 95 89 87 87 92 98 96 100 125 165 199 204 193 188 193 199 202 201 200 207 225 231 227 219 216 216 222 228 229 231 235 239 251 261 256 244 239 240 240 244 250 256 261 266 270 275 276 275 275 275 275 275 276 275 272
117 119 116 114 114 111 107 99 90 79 77 83 87 89 92 99 112 133 164 163 117 109 126 143 139 140 153 155 158 179 181 170 172 179 188 198 201 204 223 239 250 262 263 255 247 243 241 243 248 253 259 264 271 279 282 281 278 274 272 272 274 276 275
121 120 116 113 112 113 107 88 81 80 80 81 82 85 94 101 102 108 119 113 99 102 107 108 109 115 121 115 111 121 130 131 136 142 147 155 158 157 158 163 180 213 239 245 243 241 237 237 239 242 251 258 266 278 291 299 294 283 276 272 271 273 274
120 117 112 111 111 111 107 93 86 87 86 84 85 88 93 95 95 96 98 98 96 96 94 92 94 97 97 98 101 104 107 111 115 116 116 121 130 135 137 134 133 138 141 145 183 219 224 226 230 229 236 250 260 271 290 310 305 299 295 286 277 273 272
124 120 113 113 114 112 110 104 98 93 90 88 90 92 90 90 91 91 90 90 91 90 89 86 84 84 85 90 95 97 97 97 97 98 99 100 104 109 110 110 111 116 132 139 162 188 173 129 104 128 161 219 239 243 247 256 268 279 291 298 292 283 277
133 125 122 123 119 113 112 113 110 104 98 94 94 95 95 94 92 88 87 87 87 86 85 84 81 80 81 84 87 88 89 87 87 87 88 90 94 96 93 92 100 111 127 181 203 212 185 149 64 55 83 207 246 245 244 246 257 269 267 267 279 295 300
122 115 115 116 114 114 117 119 119 114 107 100 97 97 100 100 97 90 84 82 82 81 79 78 76 76 75 74 75 75 76 78 81 81 82 82 83 84 84 83 87 95 99 105 72 55 77 103 353 352 339 310 297 288 275 272 291 307 295 269 271 292 314
112 110 109 109 109 111 114 119 121 121 117 108 103 104 106 104 100 92 83 78 77 76 73 71 70 70 70 67 65 63 64 68 72 74 76 76 74 77 82 83 83 83 81 85 79 63 67 70 58 40 21 7 357 338 321 316 319 312 298 287 290 298 310
110 109 110 112 112 110 110 116 119 121 120 114 109 109 110 106 99 91 82 76 75 73 70 69 68 68 69 68 64 61 58 58 62 66 69 70 71 75 79 81 81 81 82 85 81 74 74 77 78 71 51 39 38 33 14 351 337 320 302 288 283 289 298
119 117 116 115 115 114 113 113 113 112 113 113 112 113 113 108 99 89 81 76 74 72 71 73 73 72 73 72 71 68 64 62 62 65 68 70 73 76 78 79 80 79 78 77 73 74 75 77 82 85 79 64 57 57 49 24 3 360 349 315 282 283 300
124 124 123 122 122 121 116 110 107 106 106 110 114 115 115 110 99 91 86 81 76 74 77 79 79 79 79 78 77 75 72 69 68 68 70 71 73 76 76 75 75 75 74 70 67 67 70 74 79 84 88 88 79 74 69 54 44 62 57 37 352 326 5
124 123 124 125 125 125 118 108 103 102 102 107 111 111 112 109 100 94 90 85 82 82 84 83 80 80 80 79 79 76 72 69 67 66 66 65 67 71 69 67 68 69 68 67 64 63 62 65 69 75 82 86 79 72 70 63 56 65 58 41 24 16 23
132 128 128 126 125 126 122 112 105 101 100 101 104 105 110 108 99 92 87 84 86 89 88 83 81 80 79 78 76 72 68 64 61 59 59 57 58 62 62 61 61 61 60 59 57 56 54 52 52 58 63 64 58 55 57 58 59 65 60 40 29 25 22
134 131 129 126 125 128 125 118 111 107 104 103 103 103 106 106 101 93 86 84 88 90 87 82 80 79 76 74 71 65 61 58 55 53 52 51 51 54 55 54 55 56 55 53 51 50 48 44 40 40 42 39 37 35 33 37 46 55 55 43 32 25 17
136 135 132 128 127 130 128 123 120 115 110 109 109 106 102 104 104 96 91 92 95 91 85 81 78 75 71 66 62 57 51 48 46 45 45 44 44 46 48 47 49 52 52 52 51 50 47 43 38 33 29 23 17 15 14 15 21 27 29 24 18 13 8
130 133 132 129 128 129 128 125 124 121 115 111 112 111 106 105 103 96 93 94 94 90 87 83 77 74 69 64 58 52 47 44 41 40 42 43 44 46 46 45 45 48 48 48 49 47 44 42 37 30 23 17 10 4 2 4 7 8 6 2 357 354 352
126 132 132 132 132 133 133 129 125 123 119 115 113 112 109 103 98 93 90 86 80 77 77 75 73 72 67 62 56 51 48 47 43 38 36 36 36 37 37 37 37 40 41 41 39 35 31 30 27 22 15 8 4 1 358 359 1 359 356 353 350 347 343
128 133 135 138 141 141 139 135 133 132 128 123 120 117 112 104 96 89 79 64 51 44 49 60 66 66 62 56 50 46 45 45 40 34 31 29 25 23 23 22 21 25 34 39 34 25 18 15 15 15 8 360 356 354 352 356 360 358 353 351 348 344 341
144 145 147 151 153 151 148 146 146 144 138 133 132 128 119 107 94 78 50 27 4 357 19 45 52 52 50 44 41 42 40 37 33 28 25 22 18 17 17 17 15 17 26 34 34 27 17 9 8 9 3 357 356 353 349 350 353 351 347 345 344 342 340
158 158 160 163 161 160 159 157 154 150 145 144 147 147 142 132 120 106 37 17 349 348 12 33 34 34 33 29 31 35 30 22 19 19 18 16 14 13 14 16 19 21 22 24 26 29 27 19 14 12 3 355 357 358 352 347 344 340 338 338 338 338 338
167 167 169 172 169 166 163 160 158 156 154 154 157 160 162 163 165 172 174 164 159 131 42 22 13 17 18 18 23 25 15 7 7 9 9 10 11 13 13 14 15 18 19 18 17 19 24 27 27 27 19 5 357 355 351 347 344 344 343 340 337 335 334
176 175 175 177 174 169 166 164 165 165 163 162 165 168 170 170 172 174 173 168 165 158 139 76 6 3 5 9 14 11 0 355 356 358 358 359 1 5 8 9 7 5 7 10 8 8 14 21 24 27 25 16 5 357 351 350 351 351 350 347 343 339 334